#timestamp,LO_Frequency,Hit 
1500663615.2,286046991.4,N
1500663635.1,286046990.4,N
1500663636.0,286046990.4,N
1500663655.8,286046991.1,N
1500663675.7,286046991.6,N
1500663695.5,286046988.6,N
1500663715.3,286046991.2,N
1500663735.2,286046991.3,N
1500663755.9,286046991.0,N
1500663775.7,286046990.7,N
1500663795.6,286046990.3,N
1500663815.4,286046993.1,N
1500663835.3,286046990.3,N
1500663855.1,286046990.3,N
1500663856.0,286046990.3,N
1500663875.8,286046990.5,N
1500663895.7,286046992.8,N
1500663915.5,286046992.5,N
1500663935.4,286046993.0,N
1500663955.2,286046991.9,N
1500663975.0,286046992.4,N
1500663975.9,286046992.4,N
1500663995.8,286046992.3,N
1500664015.6,286046986.3,N
1500664035.4,286046991.9,N
1500664055.3,286046992.8,N
1500664075.1,286046992.1,N
1500664095.9,286046993.0,N
1500664115.7,286046992.1,N
1500664135.5,286046994.7,N
1500664155.4,286046991.8,N
1500664175.2,286046992.7,N
1500664195.0,286046992.0,N
1500664195.9,286046992.0,N
1500664215.8,286046992.5,N
1500664235.6,286046994.8,N
1500664255.5,286046992.2,N
1500664275.3,286046991.9,N
1500664295.1,286046994.6,N
1500664315.9,286046994.5,N
1500664335.7,286046993.5,N
1500664355.6,286046991.8,N
1500664375.4,286046994.8,N
1500664395.2,286046994.5,N
1500664415.1,286046994.6,N
1500664416.0,286046994.6,N
1500664435.8,286046993.6,N
1500664455.6,286046993.8,N
1500664475.5,286046996.1,N
1500664495.3,286046993.4,N
1500664515.2,286046996.0,N
1500664535.9,286046996.0,N
1500664555.7,286046993.9,N
1500664575.6,286046996.0,N
1500664595.4,286046996.3,N
1500664615.2,286046996.4,N
1500664635.1,286046994.5,N
1500664636.0,286046994.5,N
1500664655.8,286046994.1,N
1500664675.7,286046995.8,N
1500664695.5,286046996.3,N
1500664715.3,286046995.9,N
1500664735.2,286046996.2,N
1500664755.0,286046996.1,N
1500664755.9,286046996.1,N
1500664775.8,286046995.3,N
1500664795.6,286046997.8,N
1500664815.4,286046995.2,N
1500664835.3,286046994.9,N
1500664855.1,286046997.9,N
1500664875.8,286046994.9,N
1500664895.7,286046996.3,N
1500664915.5,286046996.1,N
1500664935.4,286046995.8,N
1500664955.2,286046995.1,N
1500664975.0,286046997.9,N
1500664975.9,286046997.9,N
1500664995.8,286046995.1,N
1500665015.6,286046995.1,N
1500665035.4,286046995.4,N
1500665055.3,286046993.6,N
1500665075.1,286046996.2,N
1500665095.9,286046995.2,N
1500665115.7,286046995.7,N
1500665135.5,286046996.2,N
1500665155.4,286046996.4,N
1500665175.2,286046995.4,N
1500665195.1,286046995.2,N
1500665196.0,286046995.2,N
1500665215.8,286046997.9,N
1500665235.6,286046995.6,N
1500665255.5,286046995.6,N
1500665275.3,286046995.9,N
1500665295.1,286046995.6,N
1500665315.9,286046995.2,N
1500665335.7,286046997.7,N
1500665355.6,286046997.8,N
1500665375.4,286046997.6,N
1500665395.2,286046997.4,N
1500665415.1,286046997.5,N
1500665416.0,286046997.5,N
1500665435.8,286046997.2,N
1500665455.6,286046996.8,N
1500665475.5,286046997.0,N
1500665495.3,286046999.1,N
1500665515.2,286046996.8,N
1500665535.9,286047011.9,N
1500665555.7,286046997.1,N
1500665575.6,286046997.4,N
1500665595.4,286046997.3,N
1500665615.3,286046997.4,N
1500665635.1,286046997.5,N
1500665636.0,286046997.5,N
1500665655.8,286046994.9,N
1500665675.7,286046997.8,N
1500665695.5,286046996.7,N
1500665715.3,286046999.6,N
1500665735.2,286046996.7,N
1500665755.0,286046997.0,N
1500665755.9,286046997.0,N
1500665775.8,286046997.4,N
1500665795.6,286046997.4,N
1500665815.4,286046997.8,N
1500665835.3,286046994.9,N
1500665855.1,286046995.1,N
1500665875.9,286046997.9,N
1500665895.7,286046996.7,N
1500665915.5,286046997.2,N
1500665935.4,286046997.8,N
1500665955.2,286046998.0,N
1500665975.1,286046994.9,N
1500665976.0,286046994.9,N
1500665995.8,286046995.3,N
1500666015.6,286046997.3,N
1500666035.5,286046997.6,N
1500666055.3,286046996.6,N
1500666075.1,286046997.2,N
1500666095.9,286046997.2,N
1500666115.7,286046999.1,N
1500666135.6,286046999.0,N
1500666155.4,286047001.1,N
1500666175.2,286046998.6,N
1500666195.1,286046998.8,N
1500666196.0,286046998.8,N
1500666215.8,286046999.3,N
1500666235.7,286047001.2,N
1500666255.5,286046999.0,N
1500666275.3,286046999.2,N
1500666295.2,286046998.8,N
1500666315.0,286046998.7,N
1500666315.9,286046998.7,N
1500666335.8,286046998.2,N
1500666355.6,286046998.8,N
1500666375.4,286046998.2,N
1500666395.3,286046998.5,N
1500666415.1,286046998.7,N
1500666435.9,286046998.8,N
1500666455.7,286046998.9,N
1500666475.5,286047001.1,N
1500666495.4,286046998.2,N
1500666515.2,286046998.8,N
1500666535.0,286046999.0,N
1500666535.9,286046999.0,N
1500666555.8,286046998.9,N
1500666575.6,286046999.0,N
1500666595.5,286046998.8,N
1500666615.3,286046998.5,N
1500666635.1,286047000.6,N
1500666655.9,286047000.9,N
1500666675.7,286047001.0,N
1500666695.5,286047001.1,N
1500666715.4,286046998.1,N
1500666735.2,286046998.5,N
1500666755.1,286046998.6,N
1500666756.0,286046998.6,N
1500666775.8,286047000.8,N
1500666795.6,286047001.2,N
1500666815.5,286047000.4,N
1500666835.3,286047001.1,N
1500666855.1,286046998.7,N
1500666875.9,286047001.2,N
1500666895.7,286047000.8,N
1500666915.6,286047001.1,N
1500666935.4,286046998.3,N
1500666955.2,286047000.8,N
1500666975.1,286046998.8,N
1500666976.0,286046998.8,N
1500666995.8,286046999.1,N
1500667015.6,286046999.1,N
1500667035.5,286046996.6,N
1500667055.3,286046996.9,N
1500667075.2,286046997.4,N
1500667095.9,286046996.5,N
1500667115.7,286046997.7,N
1500667135.6,286046995.0,N
1500667155.4,286046995.6,N
1500667175.2,286046995.2,N
1500667195.1,286046995.6,N
1500667196.0,286046995.6,N
